Find Starlink 2245

NORAD ID: 48589 Int'l Des: 2021-041 Owner: SPXS Country: US Constellation: starlink operational
LEOCIRCULAR

リアルタイム位置

3D地球を読み込み中...

Starlink 2245について

説明を読み込み中...

次回通過

Passes for default location (London). Set your location on the main map for personalized predictions.

高度履歴

Loading altitude history...

軌道要素

1 48589U 21041AN 26106.17785602 .00060908 00000-0 20223-2 0 9997
2 48589 53.1611 312.6014 0001293 95.1603 264.9546 15.30667694271013
Epoch: Apr 16, 2026 • Age: 12 hours

現在のステータス

高度 481.5 km
速度 7.62 km/s
衛星直下点 -25.52°S, 63.89°E
打ち上げ日 May 15, 2021
運用期間 4.9 years
タイプ internet

技術仕様

分類 Payload
質量 260.00 kg
乾燥質量 248.00 kg
総質量 260.00 kg
長さ 0.20 m
直径 2.80 m
スパン 9.00 m
形状 Box + pan
製造者 SPXS
バスタイプ Starlink
フェーズステータス In Orbit
所有者/国 SPXS/US

Most Searched